Location: Fauquembergues
(50.6005°N, 2.0987°E)
Time: 21:11:45
(UTC+00:00)

UNK - Pass Details

Date: 14 July 2020
Orbit: 667 x 686 km, 98.1° (Epoch: 14 August)

Event Time Altitude Azimuth Distance (km) Brightness Sun altitude
Exits shadow 01:33:04 19° 171° (S) 1,581 5.1 -14.8°
Maximum altitude 01:36:21 78° 256° (WSW) 699 3.7 -14.6°
Drops below altitude 10° 01:41:02 10° 343° (NNW) 2,131 7.0 -14.2°
Sets 01:43:17 0° 345° (NNW) 3,054 8.0 -14.1°
